Regional Weather Roundup
Issued by NWS Lake Charles, LA

Current Version | Previous Version | Text Only | Print | Product List | Glossary On
Versions: 1 2 3 4 5 6 7 8 9 10 11 12 13 14 15 16 17 18 19 20 21 22 23 24 25 26 27 28 29 30 31 32 33 34 35 36 37 38 39 40 41 42 43 44 45 46 47 48 49 50
000
ASUS44 KLCH 270410
RWRLCH
REGIONAL WEATHER ROUNDUP
NATIONAL WEATHER SERVICE LAKE CHARLES LA
1100 PM CDT FRI AUG 26 2016

Note: "fair" indicates few or no clouds below 12,000 feet with no
significant weather and/or obstructions to visibility.


ACROSS SOUTHEAST TEXAS

CITY           SKY/WX    TMP DP  RH WIND       PRES   REMARKS
BEAUMONT       LGT RAIN  77  73  87 NW3       29.98S
BEAUMONT CITY  FAIR      78  74  87 N3        30.00S
ORANGE         DRIZZLE   77  75  94 SE5       30.01R
JASPER         CLOUDY    75  74  96 CALM      30.03S
$$

ACROSS CENTRAL LOUISIANA

CITY           SKY/WX    TMP DP  RH WIND       PRES   REMARKS
LEESVILLE      CLOUDY    78  75  90 S2        30.01S
FULLERTON      FAIR      77  74  90 CALM      29.99F
ALEXANDRIA INT CLEAR     76  75  97 CALM      29.99S FOG
ESLER FIELD    PTCLDY    75  75 100 CALM      30.01S FOG
DERIDDER       FAIR      78  77  95 CALM      30.03S
OAKDALE        CLEAR     74  74  97 CALM      30.01S
OPELOUSAS      FAIR      78  77  97 CALM      30.00S
$$

ACROSS SOUTHWEST AND SOUTH CENTRAL LOUISIANA

CITY           SKY/WX    TMP DP  RH WIND       PRES   REMARKS
SULPHUR        CLOUDY    78  76  92 CALM      29.99F
LAKE CHARLES   LGT RAIN  78  75  90 SW3       29.99F
CHENNAULT INT  CLOUDY    77  71  82 CALM      29.99F
CAMERON PHI    NOT AVBL
DEQUINCY       FAIR      76  74  94 CALM      30.00F
JENNINGS       NOT AVBL
LAFAYETTE      CLOUDY    81  76  84 CALM      30.00S
NEW IBERIA     MOCLDY    79  74  84 N3        30.00S
ABBEVILLE      FAIR      78  76  94 CALM      29.99F
PATTERSON      CLOUDY    78  76  93 N5        30.00R
SALT POINT       N/A     79  76  90 CALM      29.97R
$$

SELECTED SITES ACROSS THE REGION

CITY           SKY/WX    TMP DP  RH WIND       PRES   REMARKS
HOUSTON BUSH   CLOUDY    76  73  91 VRB3      30.01R
HOUSTON HOBBY  MOCLDY    78  74  87 N3        29.99S
GALVESTON      CLEAR     82  76  81 NE6       29.99S
COLLEGE STAT   CLOUDY    76  73  91 E6        30.02S
CONROE         CLOUDY    74  73  97 CALM      30.02S
HUNTSVILLE     CLOUDY    76  73  91 CALM      30.02S
LUFKIN         CLOUDY    74  73  97 CALM      30.01S FOG
SHREVEPORT     MOCLDY    76  75  97 CALM      30.00F
MONROE         PTCLDY    76  76 100 E5        30.02F
NATCHEZ MS     CLEAR     75  72  88 CALM      30.02S
BATON ROUGE    PTCLDY    78  75  90 CALM      30.01R
N.O. INTL ARPT MOCLDY    83  74  74 E3        29.99R
SLIDELL        CLEAR     78  76  93 CALM      29.99R
$$

MARINE REPORTS

STATION/POSITION TIME  SKY/WX   TEMP    WIND        PRES    VSBY
                                AIR SEA DIR/SP/G
                 (UTC)          (F)     (DEG/KT/KT) (MB)    (MI)
BUOY 30 S HIGH I 0350            84 86   50/  8/ 12 1015.1R
WVE H/P(F/S)=  2/ 6

SEA RIM ST PARK  0400            78      80/  5/  6 1016.1R
PORT ARTHUR      0300               87   70/  2/  3 1015.6F
SABINE PASS N    0300            80 87   30/  6/  7 1016.9R
TEXAS POINT      NOT AVBL
CALCASIEU PASS   0300            75 87  130/  3/  4 1015.0F
LK CHARLES BEACH 0300            79 81              1016.3R
MARSH ISLAND     0300            82                   N/A
FRESH WATER LOCK 0300            80 87   10/  3/  4 1015.9R
AMERADA PASS     0300            79 85   60/  4/  5 1014.9R
$$



USA.gov is the U.S. government's official web portal to all federal, state and local government web resources and services.